ECHOSTAR 11

Last updated on Sun Apr 12 2026 00:02:51 GMT+0000 (Coordinated Universal Time)

1 33207U 08035A 26101.49893729 -.00000056 00000+0 00000+0 0 9992 2 33207 0.8313 84.8638 0002445 282.2799 262.3943 1.00271877 50549
UTC large
Height (km)
Speed (km/s)
/
Latitude / Longitude
Inclination (degrees)
Orbital Period (minutes)
Azimuth
Elevation
Range (km)
Doppler Factor

Next 0 passes for location: London (51.5072 / 0.1276)

Sorry there are no passes over London.
ECHOSTAR 11